User: anonymous   Login
Location: Nebula Knoll Observatory
(43.6666°N, 71.0000°W)
Time: 01:31:38
(UTC-04:00)
Language:

Cosmos 1782 - Orbit

View from above orbital plane
View from above orbital plane
View from above satellite
View from above satellite

Ground track
Ground track

The orbit data is extracted from the following two-line orbital elements,

1 16986U 86074A   17083.89378140 +.00000242 +00000-0 +14384-4 0  9996
2 16986 082.5100 203.2172 0009829 266.1175 093.8929 15.06485256636985
Epoch (UTC): 24 March 2017 21:27:02
Eccentricity: 0.0009829
inclination: 82.5100°
perigee height: 540 km
apogee height: 554 km
right ascension of ascending node: 203.2172°
argument of perigee: 266.1175°
revolutions per day: 15.06485256
mean anomaly at epoch: 93.8929°
orbit number at epoch: 63698

The dashed part of the orbit path shows where the satellite is in the earth's shadow,  

DLR